This is the latest recevied weather packets stored in our database for station/object DL4NBA-1. If no packets are shown the sender has not sent any weather packets the latest 1 day(s).
| Time | Temp. | Humidity | Pressure | Rain* | Wind** | Luminosity | Snow |
|---|---|---|---|---|---|---|---|
| 1778079945 | 20.56° C | - | - | 0 mm | 1.79 m/s, 142° | - | - |
| 1778079646 | 20° C | - | - | 0 mm | 1.79 m/s, 129° | - | - |
| 1778078746 | 18.89° C | - | - | 0 mm | 1.79 m/s, 129° | - | - |
| 1778078447 | 19.44° C | - | - | 0 mm | 2.24 m/s, 136° | - | - |
| 1778076048 | 20.56° C | - | - | 0 mm | 3.13 m/s, 316° | - | - |
| 1778074549 | 20.56° C | - | - | 0 mm | 0.89 m/s, 176° | - | - |
| 1778073048 | 22.78° C | - | - | 0 mm | 0.45 m/s, 252° | - | - |
| 1778070350 | 24.44° C | - | - | 0 mm | 2.24 m/s, 138° | - | - |
| 1778068549 | 20.56° C | - | - | 0 mm | 0.89 m/s, 207° | - | - |
| 1778067053 | 21.11° C | - | - | 0 mm | 0.45 m/s, 132° | - | - |
| 1778066754 | 21.11° C | - | - | 0 mm | 0.89 m/s, 7° | - | - |
| 1778066157 | 21.67° C | - | - | 0 mm | 0.89 m/s, 226° | - | - |
| 1778065858 | 20° C | - | - | 0 mm | 0.45 m/s, 321° | - | - |
| 1778062862 | 18.89° C | - | - | 0 mm | 1.34 m/s, 221° | - | - |
| 1778061364 | 18.89° C | - | - | 0 mm | 1.79 m/s, 238° | - | - |
| 1778060463 | 18.33° C | - | - | 0 mm | 1.34 m/s, 118° | - | - |
| 1778058666 | 18.33° C | - | - | 0 mm | 1.34 m/s, 238° | - | - |
| 1778057466 | 18.33° C | - | - | 0 mm | 1.34 m/s, 132° | - | - |
| 1778057166 | 16.67° C | - | - | 0 mm | 1.79 m/s, 162° | - | - |
| 1778056566 | 16.67° C | - | - | 0 mm | 2.68 m/s, 243° | - | - |
| 1778055670 | 18.89° C | - | - | 0 mm | 2.24 m/s, 235° | - | - |
| 1778054771 | 20° C | - | - | 0 mm | 2.24 m/s, 173° | - | - |
| 1778054472 | 18.33° C | - | - | 0 mm | 1.79 m/s, 174° | - | - |
| 1778053875 | 15.56° C | - | - | 0 mm | 1.79 m/s, 179° | - | - |
| 1778053274 | 16.67° C | - | - | 0 mm | 2.24 m/s, 203° | - | - |
* Rain latest hour (hover to see other rain measurements)
** Current wind speed in m/s (hover to see current wind gust speed)